EWG85P LROP-EDDS

Flight info

Callsign EWG85P
Flight time 1h 55m
Altitude 32000
Route SOKRU DCT ERUKO DCT MEDUD DCT EBORO DCT NALOX DCT INSAX DCT INGID DCT RTT Y703 MOGTI Q163 OLASO Z714 PELOG T126 REUTL REUTL1W
Aircraft A320/M-SDE3FGHIRWY/LB1

Departure

Time 2026-05-05 16:46
Airport Bucharest Henri Coandă International Airport (LROP)

Arrival

Time 2026-05-05 18:42
Airport Stuttgart Airport (EDDS)
Time Latitude Longitude Altitude Speed Heading
2026-05-05 16:14 44.57111 26.07947 323 ft 0 kts 174°
2026-05-05 16:33 44.57133 26.07944 322 ft 4 kts 174°
2026-05-05 16:33 44.57160 26.07940 322 ft 4 kts 169°
2026-05-05 16:33 44.57182 26.07926 322 ft 4 kts 126°
2026-05-05 16:34 44.57189 26.07899 322 ft 1 kts 84°
2026-05-05 16:37 44.57191 26.07918 322 ft 6 kts 84°
2026-05-05 16:37 44.57198 26.08018 322 ft 12 kts 84°
2026-05-05 16:37 44.57206 26.08129 322 ft 10 kts 84°
2026-05-05 16:37 44.57213 26.08225 322 ft 11 kts 84°
2026-05-05 16:38 44.57221 26.08337 322 ft 11 kts 84°
2026-05-05 16:38 44.57230 26.08444 322 ft 13 kts 84°
2026-05-05 16:38 44.57287 26.08497 322 ft 10 kts 354°
2026-05-05 16:38 44.57382 26.08483 322 ft 17 kts 354°
2026-05-05 16:39 44.57489 26.08504 323 ft 16 kts 56°
2026-05-05 16:39 44.57505 26.08652 322 ft 16 kts 84°
2026-05-05 16:39 44.57516 26.08803 322 ft 15 kts 84°
2026-05-05 16:39 44.57526 26.08943 322 ft 13 kts 84°
2026-05-05 16:40 44.57538 26.09099 322 ft 19 kts 84°
2026-05-05 16:40 44.57553 26.09290 322 ft 20 kts 84°
2026-05-05 16:40 44.57567 26.09493 322 ft 21 kts 84°
2026-05-05 16:40 44.57584 26.09706 322 ft 23 kts 83°
2026-05-05 16:41 44.57601 26.09925 322 ft 20 kts 84°
2026-05-05 16:41 44.57615 26.10125 322 ft 21 kts 83°
2026-05-05 16:41 44.57632 26.10338 322 ft 23 kts 84°
2026-05-05 16:41 44.57649 26.10562 322 ft 24 kts 84°
2026-05-05 16:42 44.57666 26.10797 322 ft 24 kts 84°
2026-05-05 16:42 44.57684 26.11037 322 ft 25 kts 84°
2026-05-05 16:42 44.57703 26.11276 322 ft 23 kts 84°
2026-05-05 16:42 44.57720 26.11505 322 ft 24 kts 84°
2026-05-05 16:43 44.57737 26.11740 322 ft 23 kts 84°
2026-05-05 16:43 44.57754 26.11970 322 ft 24 kts 83°
2026-05-05 16:43 44.57772 26.12193 322 ft 21 kts 84°
2026-05-05 16:43 44.57787 26.12404 322 ft 23 kts 84°
2026-05-05 16:44 44.57803 26.12627 322 ft 24 kts 84°
2026-05-05 16:44 44.57824 26.12835 322 ft 12 kts 60°
2026-05-05 16:44 44.57867 26.12867 322 ft 0 kts 353°
2026-05-05 16:45 44.57877 26.12864 322 ft 7 kts 345°
2026-05-05 16:45 44.57935 26.12808 322 ft 10 kts 322°
2026-05-05 16:45 44.57982 26.12750 322 ft 8 kts 304°
2026-05-05 16:45 44.57986 26.12685 322 ft 6 kts 261°
2026-05-05 16:46 44.57969 26.12514 323 ft 47 kts 263°
2026-05-05 16:46 44.57911 26.11748 324 ft 110 kts 264°
2026-05-05 16:46 44.57810 26.10432 324 ft 159 kts 263°
2026-05-05 16:46 44.57683 26.08860 944 ft 153 kts 263°
2026-05-05 16:47 44.57571 26.07379 1600 ft 155 kts 263°
2026-05-05 16:47 44.57453 26.05779 1971 ft 176 kts 263°
2026-05-05 16:47 44.57316 26.03961 2304 ft 198 kts 263°
2026-05-05 16:47 44.57163 26.01925 2551 ft 223 kts 263°
2026-05-05 16:48 44.56991 25.99648 2912 ft 247 kts 263°
2026-05-05 16:48 44.56801 25.97164 3481 ft 262 kts 263°
2026-05-05 16:48 44.56603 25.94598 4305 ft 267 kts 263°
2026-05-05 16:48 44.56405 25.92024 5127 ft 271 kts 263°
2026-05-05 16:49 44.56231 25.89365 5866 ft 280 kts 269°
2026-05-05 16:49 44.56654 25.86620 6255 ft 298 kts 297°
2026-05-05 16:49 44.57943 25.84371 7143 ft 297 kts 317°
2026-05-05 16:49 44.59486 25.82429 7948 ft 299 kts 318°
2026-05-05 16:50 44.61059 25.80490 8683 ft 303 kts 318°
2026-05-05 16:50 44.62657 25.78535 9382 ft 307 kts 318°
2026-05-05 16:50 44.64277 25.76557 10057 ft 310 kts 318°
2026-05-05 16:50 44.65912 25.74554 10711 ft 314 kts 318°
2026-05-05 16:51 44.67543 25.72550 11336 ft 317 kts 318°
2026-05-05 16:51 44.69210 25.70496 11943 ft 321 kts 318°
2026-05-05 16:51 44.70893 25.68414 12525 ft 324 kts 318°
2026-05-05 16:51 44.72597 25.66303 13086 ft 328 kts 318°
2026-05-05 16:52 44.74315 25.64172 13628 ft 331 kts 318°
2026-05-05 16:52 44.76048 25.62023 14149 ft 334 kts 318°
2026-05-05 16:52 44.77829 25.59901 14641 ft 337 kts 325°
2026-05-05 16:52 44.79973 25.58559 15099 ft 341 kts 348°
2026-05-05 16:53 44.82336 25.58180 15553 ft 344 kts 356°
2026-05-05 16:53 44.84736 25.57979 15998 ft 347 kts 356°
2026-05-05 16:53 44.87124 25.57795 16421 ft 350 kts 356°
2026-05-05 16:53 44.89564 25.57609 16833 ft 352 kts 356°
2026-05-05 16:54 44.92019 25.57423 17182 ft 357 kts 356°
2026-05-05 16:54 44.94533 25.57232 17305 ft 367 kts 356°
2026-05-05 16:54 44.97114 25.57037 17434 ft 377 kts 356°
2026-05-05 16:54 44.99766 25.56836 17561 ft 386 kts 356°
2026-05-05 16:55 45.02479 25.56630 17687 ft 394 kts 356°
2026-05-05 16:55 45.05244 25.56420 17814 ft 402 kts 356°
2026-05-05 16:55 45.08049 25.56207 18021 ft 406 kts 356°
2026-05-05 16:55 45.10840 25.55995 18277 ft 408 kts 356°
2026-05-05 16:56 45.13688 25.55779 18542 ft 410 kts 356°
2026-05-05 16:56 45.16539 25.55563 18798 ft 412 kts 356°
2026-05-05 16:56 45.19412 25.55345 19042 ft 414 kts 356°
2026-05-05 16:56 45.22301 25.55126 19275 ft 416 kts 356°
2026-05-05 16:57 45.25148 25.54456 19483 ft 417 kts 342°
2026-05-05 16:57 45.27757 25.52680 19686 ft 417 kts 324°
2026-05-05 16:57 45.29883 25.49902 19877 ft 418 kts 308°
2026-05-05 16:57 45.31332 25.46397 20064 ft 418 kts 291°
2026-05-05 16:58 45.32128 25.42424 20245 ft 419 kts 283°
2026-05-05 16:58 45.32808 25.38382 20427 ft 421 kts 283°
2026-05-05 16:58 45.33487 25.34327 20610 ft 422 kts 283°
2026-05-05 16:58 45.34165 25.30265 20783 ft 424 kts 283°
2026-05-05 16:59 45.34849 25.26185 20950 ft 425 kts 283°
2026-05-05 16:59 45.35536 25.22096 21116 ft 426 kts 283°
2026-05-05 16:59 45.36222 25.17993 21273 ft 427 kts 283°
2026-05-05 16:59 45.36905 25.13878 21418 ft 428 kts 283°
2026-05-05 17:00 45.37590 25.09751 21557 ft 429 kts 283°
2026-05-05 17:00 45.38268 25.05669 21689 ft 430 kts 283°
2026-05-05 17:00 45.38954 25.01522 21819 ft 431 kts 283°
2026-05-05 17:00 45.39638 24.97363 21945 ft 432 kts 283°
2026-05-05 17:01 45.40321 24.93187 22070 ft 433 kts 283°
2026-05-05 17:01 45.41005 24.89011 22195 ft 434 kts 283°
2026-05-05 17:01 45.41692 24.84823 22320 ft 435 kts 283°
2026-05-05 17:01 45.42376 24.80632 22445 ft 435 kts 283°
2026-05-05 17:02 45.43058 24.76433 22570 ft 435 kts 283°
2026-05-05 17:02 45.43729 24.72287 22693 ft 436 kts 282°
2026-05-05 17:02 45.44410 24.68081 22818 ft 436 kts 282°
2026-05-05 17:02 45.45089 24.63870 22942 ft 436 kts 282°
2026-05-05 17:03 45.45766 24.59660 23067 ft 436 kts 282°
2026-05-05 17:03 45.46443 24.55445 23191 ft 436 kts 282°
2026-05-05 17:03 45.47118 24.51231 23316 ft 436 kts 282°
2026-05-05 17:03 45.47790 24.47012 23441 ft 436 kts 282°
2026-05-05 17:04 45.48461 24.42800 23565 ft 436 kts 282°
2026-05-05 17:04 45.49133 24.38580 23690 ft 436 kts 282°
2026-05-05 17:04 45.49795 24.34427 23812 ft 436 kts 282°
2026-05-05 17:04 45.50466 24.30210 23937 ft 436 kts 282°
2026-05-05 17:05 45.51135 24.25994 24061 ft 436 kts 282°
2026-05-05 17:05 45.51799 24.21782 24185 ft 435 kts 282°
2026-05-05 17:05 45.52461 24.17570 24310 ft 435 kts 282°
2026-05-05 17:05 45.53119 24.13363 24434 ft 435 kts 282°
2026-05-05 17:06 45.53773 24.09160 24559 ft 434 kts 282°
2026-05-05 17:06 45.54425 24.04956 24684 ft 434 kts 282°
2026-05-05 17:06 45.55073 24.00758 24809 ft 433 kts 282°
2026-05-05 17:06 45.55721 23.96562 24933 ft 433 kts 282°
2026-05-05 17:07 45.56360 23.92427 25057 ft 432 kts 282°
2026-05-05 17:07 45.57006 23.88243 25181 ft 431 kts 282°
2026-05-05 17:07 45.57649 23.84065 25306 ft 431 kts 282°
2026-05-05 17:07 45.58290 23.79893 25431 ft 430 kts 282°
2026-05-05 17:08 45.58930 23.75728 25555 ft 429 kts 282°
2026-05-05 17:08 45.59565 23.71575 25680 ft 428 kts 282°
2026-05-05 17:08 45.60197 23.67427 25804 ft 427 kts 282°
2026-05-05 17:08 45.60826 23.63287 25929 ft 426 kts 282°
2026-05-05 17:09 45.61453 23.59146 26054 ft 426 kts 282°
2026-05-05 17:09 45.62066 23.55079 26177 ft 425 kts 282°
2026-05-05 17:09 45.62686 23.50954 26301 ft 424 kts 282°
2026-05-05 17:09 45.63305 23.46840 26426 ft 423 kts 282°
2026-05-05 17:10 45.63923 23.42726 26550 ft 423 kts 282°
2026-05-05 17:10 45.64537 23.38627 26675 ft 422 kts 282°
2026-05-05 17:10 45.65148 23.34529 26800 ft 421 kts 282°
2026-05-05 17:10 45.65758 23.30433 26924 ft 421 kts 282°
2026-05-05 17:11 45.66366 23.26347 27050 ft 420 kts 282°
2026-05-05 17:11 45.66960 23.22324 27173 ft 419 kts 281°
2026-05-05 17:11 45.67561 23.18247 27298 ft 419 kts 281°
2026-05-05 17:11 45.68161 23.14178 27422 ft 418 kts 281°
2026-05-05 17:12 45.68756 23.10113 27547 ft 417 kts 281°
2026-05-05 17:12 45.69351 23.06051 27672 ft 417 kts 281°
2026-05-05 17:12 45.69944 23.01997 27797 ft 416 kts 281°
2026-05-05 17:12 45.70532 22.97960 27921 ft 415 kts 281°
2026-05-05 17:13 45.71119 22.93915 28047 ft 414 kts 281°
2026-05-05 17:13 45.71694 22.89938 28170 ft 413 kts 281°
2026-05-05 17:13 45.72273 22.85917 28295 ft 412 kts 281°
2026-05-05 17:13 45.72850 22.81901 28419 ft 411 kts 281°
2026-05-05 17:14 45.73425 22.77899 28544 ft 411 kts 281°
2026-05-05 17:14 45.74001 22.73900 28669 ft 410 kts 281°
2026-05-05 17:14 45.74573 22.69904 28794 ft 409 kts 281°
2026-05-05 17:14 45.75139 22.65915 28919 ft 408 kts 281°
2026-05-05 17:15 45.75704 22.61939 29044 ft 408 kts 281°
2026-05-05 17:15 45.76261 22.58020 29166 ft 407 kts 281°
2026-05-05 17:15 45.76823 22.54049 29291 ft 406 kts 281°
2026-05-05 17:15 45.77380 22.50089 29416 ft 405 kts 281°
2026-05-05 17:16 45.77936 22.46134 29541 ft 405 kts 281°
2026-05-05 17:16 45.78490 22.42185 29666 ft 404 kts 281°
2026-05-05 17:16 45.79041 22.38244 29791 ft 403 kts 281°
2026-05-05 17:16 45.79591 22.34303 29915 ft 403 kts 281°
2026-05-05 17:17 45.80141 22.30371 30040 ft 402 kts 281°
2026-05-05 17:17 45.80687 22.26446 30165 ft 401 kts 281°
2026-05-05 17:17 45.81222 22.22574 30289 ft 401 kts 281°
2026-05-05 17:17 45.81759 22.18662 30413 ft 400 kts 281°
2026-05-05 17:18 45.82293 22.14756 30538 ft 399 kts 281°
2026-05-05 17:18 45.82833 22.10854 30663 ft 398 kts 282°
2026-05-05 17:18 45.83599 22.07039 30788 ft 398 kts 290°
2026-05-05 17:18 45.84566 22.03327 30913 ft 397 kts 290°
2026-05-05 17:19 45.85529 21.99623 31037 ft 396 kts 290°
2026-05-05 17:19 45.86485 21.95923 31162 ft 395 kts 290°
2026-05-05 17:19 45.87423 21.92274 31285 ft 395 kts 290°
2026-05-05 17:19 45.88368 21.88580 31410 ft 394 kts 290°
2026-05-05 17:20 45.89310 21.84899 31535 ft 393 kts 290°
2026-05-05 17:20 45.90249 21.81221 31660 ft 392 kts 290°
2026-05-05 17:20 45.91184 21.77554 31784 ft 391 kts 290°
2026-05-05 17:20 45.92117 21.73897 31941 ft 389 kts 290°
2026-05-05 17:21 45.93976 21.66575 32010 ft 392 kts 289°
2026-05-05 17:22 45.96784 21.55468 32009 ft 399 kts 289°
2026-05-05 17:22 45.98687 21.47923 32009 ft 404 kts 289°
2026-05-05 17:23 46.00608 21.40299 32010 ft 407 kts 289°
2026-05-05 17:23 46.02538 21.32603 32009 ft 411 kts 289°
2026-05-05 17:24 46.04466 21.24897 32009 ft 414 kts 289°
2026-05-05 17:24 46.06418 21.17074 32009 ft 416 kts 289°
2026-05-05 17:25 46.08366 21.09189 32009 ft 419 kts 289°
2026-05-05 17:25 46.10321 21.01254 32009 ft 422 kts 289°
2026-05-05 17:26 46.12271 20.93320 32009 ft 424 kts 289°
2026-05-05 17:26 46.14253 20.85293 32009 ft 426 kts 289°
2026-05-05 17:27 46.16278 20.77252 32009 ft 428 kts 290°
2026-05-05 17:27 46.18315 20.69172 32009 ft 429 kts 289°
2026-05-05 17:28 46.20340 20.61051 32009 ft 431 kts 289°
2026-05-05 17:28 46.22341 20.52938 32009 ft 432 kts 289°
2026-05-05 17:29 46.24361 20.44751 32009 ft 434 kts 289°
2026-05-05 17:29 46.26386 20.36521 32009 ft 435 kts 289°
2026-05-05 17:30 46.28395 20.28323 32009 ft 436 kts 289°
2026-05-05 17:30 46.30418 20.20041 32009 ft 437 kts 289°
2026-05-05 17:31 46.32442 20.11731 32009 ft 438 kts 289°
2026-05-05 17:31 46.34465 20.03399 32009 ft 439 kts 289°
2026-05-05 17:32 46.36361 19.95053 32009 ft 440 kts 285°
2026-05-05 17:32 46.37900 19.86464 32009 ft 441 kts 283°
2026-05-05 17:33 46.39316 19.77825 32009 ft 442 kts 283°
2026-05-05 17:33 46.40775 19.69217 32009 ft 442 kts 284°
2026-05-05 17:34 46.42287 19.60567 32009 ft 443 kts 284°
2026-05-05 17:34 46.43790 19.51969 32009 ft 444 kts 284°
2026-05-05 17:35 46.45295 19.43292 32009 ft 444 kts 284°
2026-05-05 17:35 46.46789 19.34589 32009 ft 445 kts 283°
2026-05-05 17:36 46.48277 19.25868 32009 ft 445 kts 283°
2026-05-05 17:36 46.49750 19.17212 32009 ft 446 kts 283°
2026-05-05 17:37 46.51235 19.08477 32009 ft 446 kts 283°
2026-05-05 17:37 46.52708 18.99732 32009 ft 446 kts 283°
2026-05-05 17:38 46.54170 18.90962 32009 ft 447 kts 283°
2026-05-05 17:38 46.55617 18.82248 32009 ft 447 kts 283°
2026-05-05 17:39 46.57075 18.73462 32009 ft 447 kts 283°
2026-05-05 17:39 46.58532 18.64667 32009 ft 448 kts 283°
2026-05-05 17:40 46.59983 18.55860 32009 ft 448 kts 283°
2026-05-05 17:40 46.61421 18.47041 32009 ft 448 kts 283°
2026-05-05 17:41 46.62836 18.38269 32009 ft 448 kts 283°
2026-05-05 17:41 46.64261 18.29431 32009 ft 449 kts 283°
2026-05-05 17:42 46.65688 18.20587 32009 ft 449 kts 283°
2026-05-05 17:42 46.67106 18.11741 32009 ft 449 kts 283°
2026-05-05 17:43 46.68515 18.02874 32009 ft 449 kts 283°
2026-05-05 17:43 46.69907 17.94065 32009 ft 450 kts 282°
2026-05-05 17:44 46.71302 17.85180 32009 ft 450 kts 282°
2026-05-05 17:44 46.72690 17.76296 32009 ft 450 kts 282°
2026-05-05 17:45 46.74078 17.67402 32009 ft 450 kts 282°
2026-05-05 17:45 46.75454 17.58563 32009 ft 450 kts 282°
2026-05-05 17:46 46.76825 17.49654 32009 ft 450 kts 282°
2026-05-05 17:46 46.78186 17.40736 32009 ft 450 kts 282°
2026-05-05 17:47 46.79544 17.31812 31979 ft 451 kts 282°
2026-05-05 17:47 46.80890 17.22919 31970 ft 452 kts 282°
2026-05-05 17:48 46.82232 17.13964 31969 ft 452 kts 282°
2026-05-05 17:48 46.83569 17.04998 31969 ft 452 kts 282°
2026-05-05 17:49 46.84899 16.96036 31969 ft 452 kts 282°
2026-05-05 17:49 46.86216 16.87124 31969 ft 452 kts 282°
2026-05-05 17:50 46.87613 16.78172 31969 ft 452 kts 284°
2026-05-05 17:50 46.89368 16.69349 31969 ft 452 kts 287°
2026-05-05 17:51 46.91245 16.60574 31969 ft 452 kts 287°
2026-05-05 17:51 46.93033 16.51823 31969 ft 452 kts 286°
2026-05-05 17:52 46.94767 16.42979 31969 ft 452 kts 285°
2026-05-05 17:52 46.96491 16.34124 31969 ft 452 kts 285°
2026-05-05 17:53 46.98215 16.25275 31969 ft 452 kts 285°
2026-05-05 17:53 46.99946 16.16419 31969 ft 452 kts 285°
2026-05-05 17:54 47.01605 16.07601 31968 ft 452 kts 281°
2026-05-05 17:54 47.02668 15.98527 31969 ft 452 kts 279°
2026-05-05 17:55 47.03715 15.89448 31969 ft 452 kts 279°
2026-05-05 17:55 47.04760 15.80363 31969 ft 452 kts 279°
2026-05-05 17:56 47.05786 15.71336 31969 ft 452 kts 279°
2026-05-05 17:56 47.06814 15.62240 31969 ft 452 kts 279°
2026-05-05 17:57 47.07833 15.53141 31969 ft 452 kts 279°
2026-05-05 17:57 47.08844 15.44036 31970 ft 452 kts 279°
2026-05-05 17:58 47.09847 15.34925 31970 ft 452 kts 279°
2026-05-05 17:58 47.10841 15.25865 31970 ft 452 kts 279°
2026-05-05 17:59 47.11835 15.16730 31970 ft 453 kts 278°
2026-05-05 17:59 47.12812 15.07616 31970 ft 453 kts 278°
2026-05-05 18:00 47.13788 14.98483 31970 ft 453 kts 278°
2026-05-05 18:00 47.14758 14.89377 31970 ft 453 kts 278°
2026-05-05 18:01 47.15715 14.80250 31970 ft 453 kts 278°
2026-05-05 18:01 47.16672 14.71101 31970 ft 453 kts 278°
2026-05-05 18:02 47.17622 14.61936 31970 ft 453 kts 278°
2026-05-05 18:02 47.18558 14.52777 31971 ft 453 kts 278°
2026-05-05 18:03 47.19489 14.43674 31970 ft 453 kts 278°
2026-05-05 18:03 47.20419 14.34511 31970 ft 453 kts 278°
2026-05-05 18:04 47.21336 14.25330 31971 ft 454 kts 278°
2026-05-05 18:04 47.22242 14.16156 31971 ft 454 kts 278°
2026-05-05 18:05 47.23142 14.07021 31971 ft 454 kts 278°
2026-05-05 18:05 47.24044 13.97837 31971 ft 454 kts 278°
2026-05-05 18:06 47.24937 13.88629 31971 ft 454 kts 278°
2026-05-05 18:06 47.25818 13.79426 31971 ft 454 kts 277°
2026-05-05 18:07 47.26697 13.70210 31972 ft 454 kts 277°
2026-05-05 18:07 47.27583 13.61062 31972 ft 455 kts 278°
2026-05-05 18:08 47.28514 13.51850 31972 ft 455 kts 278°
2026-05-05 18:08 47.29446 13.42643 31972 ft 455 kts 278°
2026-05-05 18:09 47.30358 13.33431 31972 ft 455 kts 278°
2026-05-05 18:09 47.31244 13.24265 31972 ft 455 kts 278°
2026-05-05 18:10 47.32560 13.15191 31967 ft 455 kts 293°
2026-05-05 18:10 47.35232 13.06738 31972 ft 455 kts 295°
2026-05-05 18:11 47.37934 12.98300 31971 ft 455 kts 295°
2026-05-05 18:11 47.40626 12.89850 31971 ft 455 kts 295°
2026-05-05 18:12 47.43309 12.81389 31972 ft 455 kts 295°
2026-05-05 18:12 47.45964 12.72972 31972 ft 455 kts 294°
2026-05-05 18:13 47.48630 12.64483 31972 ft 455 kts 294°
2026-05-05 18:13 47.51287 12.55989 31972 ft 455 kts 294°
2026-05-05 18:14 47.53948 12.47486 31972 ft 455 kts 294°
2026-05-05 18:14 47.56602 12.38967 31972 ft 455 kts 294°
2026-05-05 18:15 47.59227 12.30503 31972 ft 455 kts 294°
2026-05-05 18:15 47.61866 12.21970 31972 ft 456 kts 294°
2026-05-05 18:16 47.64503 12.13431 31972 ft 456 kts 294°
2026-05-05 18:16 47.67130 12.04875 31972 ft 456 kts 294°
2026-05-05 18:17 47.69748 11.96319 31972 ft 456 kts 294°
2026-05-05 18:17 47.72349 11.87802 31972 ft 456 kts 294°
2026-05-05 18:18 47.74963 11.79222 31972 ft 456 kts 294°
2026-05-05 18:18 47.77564 11.70635 31972 ft 456 kts 294°
2026-05-05 18:19 47.80152 11.62055 32010 ft 455 kts 294°
2026-05-05 18:19 47.82742 11.53453 32009 ft 455 kts 294°
2026-05-05 18:20 47.85311 11.44901 31832 ft 459 kts 294°
2026-05-05 18:20 47.86624 11.40510 31379 ft 470 kts 294°
2026-05-05 18:20 47.87962 11.36019 30926 ft 479 kts 294°
2026-05-05 18:20 47.89320 11.31458 30474 ft 484 kts 294°
2026-05-05 18:21 47.90684 11.26862 30023 ft 483 kts 293°
2026-05-05 18:21 47.92032 11.22309 29574 ft 480 kts 293°
2026-05-05 18:21 47.93379 11.17757 29122 ft 476 kts 293°
2026-05-05 18:21 47.94711 11.13259 28672 ft 472 kts 293°
2026-05-05 18:22 47.96032 11.08792 28221 ft 468 kts 293°
2026-05-05 18:22 47.97336 11.04369 27772 ft 464 kts 293°
2026-05-05 18:22 47.98611 11.00035 27328 ft 460 kts 293°
2026-05-05 18:22 47.99892 10.95675 26877 ft 457 kts 293°
2026-05-05 18:23 48.01158 10.91349 26427 ft 453 kts 293°
2026-05-05 18:23 48.02412 10.87059 25977 ft 449 kts 293°
2026-05-05 18:23 48.03657 10.82799 25526 ft 445 kts 293°
2026-05-05 18:23 48.04888 10.78578 25076 ft 441 kts 293°
2026-05-05 18:24 48.06110 10.74389 24626 ft 438 kts 293°
2026-05-05 18:24 48.07322 10.70228 24175 ft 434 kts 293°
2026-05-05 18:24 48.08516 10.66109 23725 ft 431 kts 293°
2026-05-05 18:24 48.09834 10.62114 23269 ft 427 kts 303°
2026-05-05 18:25 48.11677 10.58739 22817 ft 424 kts 312°
2026-05-05 18:25 48.12352 10.57647 22594 ft 424 kts 312°
2026-05-05 18:25 48.15683 10.52289 21404 ft 423 kts 313°
2026-05-05 18:25 48.17694 10.49076 20651 ft 423 kts 313°
2026-05-05 18:26 48.19703 10.45866 19899 ft 422 kts 313°
2026-05-05 18:26 48.21710 10.42650 19146 ft 422 kts 313°
2026-05-05 18:26 48.23710 10.39436 18393 ft 421 kts 313°
2026-05-05 18:26 48.25675 10.36271 17632 ft 406 kts 312°
2026-05-05 18:27 48.27558 10.33223 16953 ft 391 kts 312°
2026-05-05 18:27 48.29373 10.30279 16279 ft 378 kts 312°
2026-05-05 18:27 48.31123 10.27441 15785 ft 362 kts 312°
2026-05-05 18:27 48.32769 10.24770 15415 ft 345 kts 312°
2026-05-05 18:28 48.35892 10.19705 14667 ft 318 kts 312°
2026-05-05 18:28 48.37388 10.17276 14296 ft 316 kts 312°
2026-05-05 18:28 48.38881 10.14849 13920 ft 316 kts 312°
2026-05-05 18:29 48.40371 10.12420 13545 ft 316 kts 312°
2026-05-05 18:29 48.41855 10.10001 13128 ft 311 kts 312°
2026-05-05 18:29 48.43303 10.07639 12703 ft 304 kts 312°
2026-05-05 18:29 48.44718 10.05331 12277 ft 296 kts 312°
2026-05-05 18:30 48.46096 10.03082 11852 ft 288 kts 312°
2026-05-05 18:30 48.47421 10.00922 11432 ft 281 kts 312°
2026-05-05 18:30 48.48728 9.98786 11007 ft 274 kts 312°
2026-05-05 18:30 48.50005 9.96696 10582 ft 268 kts 312°
2026-05-05 18:31 48.51251 9.94650 10160 ft 262 kts 312°
2026-05-05 18:31 48.52478 9.92636 9743 ft 262 kts 312°
2026-05-05 18:31 48.53704 9.90622 9309 ft 258 kts 312°
2026-05-05 18:31 48.54908 9.88642 8883 ft 253 kts 312°
2026-05-05 18:32 48.56083 9.86709 8506 ft 247 kts 312°
2026-05-05 18:32 48.57229 9.84822 8130 ft 242 kts 312°
2026-05-05 18:32 48.58357 9.82965 7755 ft 238 kts 311°
2026-05-05 18:32 48.59471 9.81128 7379 ft 236 kts 311°
2026-05-05 18:33 48.60569 9.79317 7012 ft 238 kts 311°
2026-05-05 18:33 48.61676 9.77489 6642 ft 233 kts 311°
2026-05-05 18:33 48.62759 9.75702 6291 ft 228 kts 311°
2026-05-05 18:33 48.63820 9.73953 5940 ft 224 kts 311°
2026-05-05 18:34 48.64859 9.72236 5610 ft 217 kts 311°
2026-05-05 18:34 48.65945 9.70707 5276 ft 211 kts 322°
2026-05-05 18:34 48.67125 9.69401 5033 ft 208 kts 324°
2026-05-05 18:34 48.68311 9.68133 5006 ft 209 kts 324°
2026-05-05 18:35 48.69501 9.66865 5009 ft 209 kts 324°
2026-05-05 18:35 48.70675 9.65613 5009 ft 209 kts 324°
2026-05-05 18:35 48.71850 9.64310 5006 ft 209 kts 316°
2026-05-05 18:35 48.72591 9.62477 5005 ft 201 kts 289°
2026-05-05 18:36 48.72981 9.60546 5000 ft 185 kts 284°
2026-05-05 18:36 48.73312 9.58692 5004 ft 181 kts 284°
2026-05-05 18:36 48.73635 9.56851 5007 ft 181 kts 284°
2026-05-05 18:36 48.73956 9.55015 5008 ft 180 kts 284°
2026-05-05 18:37 48.74277 9.53180 5018 ft 180 kts 284°
2026-05-05 18:37 48.74421 9.51300 4787 ft 181 kts 262°
2026-05-05 18:37 48.74117 9.49505 4546 ft 178 kts 253°
2026-05-05 18:37 48.73781 9.47703 4308 ft 177 kts 253°
2026-05-05 18:38 48.73446 9.45912 4070 ft 176 kts 253°
2026-05-05 18:38 48.73113 9.44131 3837 ft 174 kts 253°
2026-05-05 18:38 48.72787 9.42389 3606 ft 170 kts 254°
2026-05-05 18:38 48.72469 9.40692 3385 ft 166 kts 253°
2026-05-05 18:39 48.72158 9.39029 3168 ft 163 kts 253°
2026-05-05 18:39 48.71954 9.37942 3025 ft 161 kts 253°
2026-05-05 18:39 48.71651 9.36331 2814 ft 158 kts 253°
2026-05-05 18:39 48.71353 9.34744 2606 ft 155 kts 253°
2026-05-05 18:40 48.70965 9.32680 2336 ft 153 kts 253°
2026-05-05 18:40 48.70675 9.31142 2135 ft 152 kts 253°
2026-05-05 18:40 48.70481 9.30107 2000 ft 151 kts 253°
2026-05-05 18:40 48.70101 9.28094 1735 ft 150 kts 253°
2026-05-05 18:41 48.69911 9.27090 1604 ft 149 kts 253°
2026-05-05 18:41 48.69626 9.25581 1407 ft 149 kts 253°
2026-05-05 18:41 48.69343 9.24079 1216 ft 147 kts 253°
2026-05-05 18:41 48.69090 9.22753 1222 ft 109 kts 254°
2026-05-05 18:42 48.68932 9.21894 1243 ft 60 kts 255°
2026-05-05 18:42 48.68845 9.21436 1255 ft 39 kts 253°
2026-05-05 18:42 48.68819 9.21115 1261 ft 25 kts 275°
2026-05-05 18:42 48.68849 9.20898 1268 ft 13 kts 284°
2026-05-05 18:43 48.68855 9.20862 1270 ft 0 kts 284°
2026-05-05 18:44 48.68862 9.20824 1271 ft 10 kts 284°
2026-05-05 18:44 48.68875 9.20682 1275 ft 14 kts 263°
2026-05-05 18:44 48.68852 9.20558 1278 ft 11 kts 253°
2026-05-05 18:45 48.68835 9.20467 1280 ft 10 kts 254°
2026-05-05 18:45 48.68812 9.20343 1283 ft 13 kts 254°
2026-05-05 18:45 48.68784 9.20199 1287 ft 14 kts 254°
2026-05-05 18:45 48.68759 9.20064 1290 ft 12 kts 254°
2026-05-05 18:46 48.68764 9.19946 1294 ft 12 kts 275°
2026-05-05 18:46 48.68750 9.19806 1298 ft 14 kts 254°
2026-05-05 18:46 48.68725 9.19674 1301 ft 12 kts 253°
2026-05-05 18:46 48.68705 9.19572 1304 ft 11 kts 254°
2026-05-05 18:47 48.68676 9.19419 1308 ft 15 kts 254°
2026-05-05 18:47 48.68649 9.19278 1312 ft 13 kts 254°
2026-05-05 18:47 48.68660 9.19177 1316 ft 7 kts 320°
2026-05-05 18:47 48.68726 9.19144 1318 ft 14 kts 355°
2026-05-05 18:48 48.68781 9.19235 1316 ft 11 kts 74°
2026-05-05 18:48 48.68809 9.19312 1315 ft 5 kts 10°
2026-05-05 18:48 48.68838 9.19303 1315 ft 3 kts 345°
2026-05-05 18:48 48.68855 9.19295 1315 ft 4 kts 342°
2026-05-05 18:49 48.68870 9.19288 1315 ft 0 kts 344°